Simultaneous Nadir Overpasses (SNOs) Predictions

Prediction of SNOs between NPP and TERRA Satellite Orbit:

Table of predicted SNOs for the next 14.0 days since TLE Epoch: 5/23/2012
Index Date (NPP) Time (NPP) Lat,Lon (NPP) SZA (NPP ) Date (TERRA) Time (TERRA) Lat,Lon (TERRA) SZA (TERRA ) Distance(km) Time Diff (sec)
1 05/23/2012 11:28:42 -68.29,-173.80 132.53 05/23/2012 11:29:37 -68.29,-173.84 132.53 1.37 55
2 05/23/2012 12:19:26 68.16, -6.33 47.34 05/23/2012 12:19:04 68.18, -6.33 47.35 1.92 22
3 05/23/2012 13:09:55 -67.39, 161.94 133.45 05/23/2012 13:08:45 -67.45, 160.48 133.38 62.88 70
4 05/26/2012 03:45:34 -68.28, -58.00 133.02 05/26/2012 03:46:04 -68.28, -57.96 133.02 2.13 30
5 05/26/2012 04:36:17 68.09, 109.54 46.79 05/26/2012 04:35:32 68.11, 109.48 46.81 3.01 45
6 05/28/2012 19:11:47 68.57,-109.92 46.85 05/28/2012 19:12:58 68.47,-109.47 46.74 21.09 71
7 05/28/2012 20:02:24 -68.22, 57.85 133.52 05/28/2012 20:02:31 -68.20, 57.84 133.53 1.63 7
8 05/28/2012 20:53:08 68.09,-134.68 46.35 05/28/2012 20:51:58 68.08,-134.66 46.34 1.52 70
9 05/31/2012 11:28:34 68.31, 6.19 46.20 05/31/2012 11:29:27 68.32, 6.23 46.20 1.66 53
10 05/31/2012 12:19:15 -68.17, 173.69 133.95 05/31/2012 12:18:58 -68.16, 173.68 133.97 1.33 17
11 05/31/2012 13:09:46 67.35, -17.99 45.21 05/31/2012 13:08:37 67.36, -19.59 45.24 68.23 69
12 06/03/2012 03:45:24 68.23, 122.08 45.77 06/03/2012 03:45:54 68.25, 122.05 45.79 2.74 30
13 06/03/2012 04:36:06 -68.14, -70.49
